sat.trackr.live / text

‹ back to catalog

STARLINK-34744

NORAD 64952 · 2025-158W

PAYLOAD ACTIVE UNKNOWN

§ Identity

Operator
Country
US
Launch date
2025-07-27
Launch site
AFWTR
Launch vehicle
Mass (kg)
RCS (m²)

Purposes: comms

External: N2YO · Heavens-Above · Gunter

§ Orbital elements

Epoch: 2026-05-25T03:09:09.827136Z

Period
95.64 min
Inclination
97.4482°
Eccentricity
0.0002477
Mean motion
15.05659365 rev/d
Perigee alt
547.8 km
Apogee alt
551.2 km
Semi-major
6,927.6 km
B*
3.2827e-4
RAAN
8.9788°
Arg perigee
85.8827°
Mean anomaly
274.2683°
Rev number
4,685

§ Raw data

STARLINK-347441 64952U 25158W   26145.13136374  .00004682  00000+0  32827-3 0  99972 64952  97.4482   8.9788 0002477  85.8827 274.2683 15.05659365 46850

JSON: /api/v1/satellites/64952 · /tle

For live sub-satellite position, see the globe view (requires WebGL).

§ Visibility from observer

Set your observer location to see the next 7 days of passes ≥ 10°. The values pass through the URL so the page stays shareable.

No JS? Fill the form by hand. The geolocation button needs JavaScript.